| time (UTC) | temp F | wind direction | speed MPH | gust MPH | rain 1hr in | rain 24hr in | rain mn in | humidity % | barometer mb |
| 20260504044546 | 53 | 0 | 0.0 | 0.0 | 0.00 | 0.00 | 0.00 | 87 | 1019.3 |
| 20260504043035 | 53 | 0 | 0.0 | 0.0 | 0.00 | 0.00 | 0.00 | 86 | 1019.3 |
| 20260504041542 | 53 | 0 | 0.0 | 0.0 | 0.00 | 0.00 | 0.00 | 85 | 1019.4 |
| 20260504034556 | 54 | 0 | 0.0 | 0.0 | 0.00 | 0.00 | 0.00 | 85 | 1019.5 |
| 20260504033059 | 54 | 0 | 0.0 | 0.0 | 0.00 | 0.00 | 0.00 | 84 | 1019.5 |
| 20260504031547 | 55 | 0 | 0.0 | 0.0 | 0.00 | 0.00 | 0.00 | 83 | 1019.5 |
| 20260504030046 | 55 | 0 | 0.0 | 0.0 | 0.00 | 0.00 | 0.00 | 83 | 1019.7 |
| 20260504024544 | 56 | 0 | 0.0 | 0.0 | 0.00 | 0.00 | 0.00 | 83 | 1019.5 |
| 20260504023057 | 56 | 0 | 0.0 | 0.0 | 0.00 | 0.00 | 0.00 | 80 | 1019.2 |
| 20260504021541 | 57 | 0 | 0.0 | 0.0 | 0.00 | 0.00 | 0.00 | 81 | 1019.0 |
| 20260504020041 | 58 | 0 | 0.0 | 0.0 | 0.00 | 0.00 | 0.00 | 76 | 1018.9 |
| 20260504014549 | 59 | 0 | 0.0 | 0.0 | 0.00 | 0.00 | 0.00 | 73 | 1018.9 |
| 20260504013047 | 60 | 0 | 0.0 | 0.0 | 0.00 | 0.00 | 0.00 | 70 | 1018.8 |
| 20260504011539 | 62 | 0 | 0.0 | 0.0 | 0.00 | 0.00 | 0.00 | 66 | 1018.7 |
| 20260504010054 | 64 | 0 | 0.0 | 0.0 | 0.00 | 0.00 | 0.00 | 66 | 1018.6 |
| 20260504004557 | 66 | 0 | 0.0 | 0.0 | 0.00 | 0.00 | 0.00 | 57 | 1018.5 |
| 20260504003043 | 68 | 0 | 0.0 | 1.0 | 0.00 | 0.00 | 0.00 | 54 | 1018.5 |
| 20260504001540 | 71 | 0 | 0.0 | 2.0 | 0.00 | 0.00 | 0.00 | 53 | 1018.2 |
| 20260504000039 | 72 | 0 | 0.0 | 1.0 | 0.00 | 0.00 | 0.00 | 48 | 1018.2 |
| 20260503234541 | 72 | 0 | 0.0 | 3.0 | 0.00 | 0.00 | 0.00 | 45 | 1018.1 |
| 20260503233043 | 73 | 294 | 1.0 | 3.0 | 0.00 | 0.00 | 0.00 | 43 | 1018.2 |
| 20260503231543 | 73 | 0 | 0.0 | 2.0 | 0.00 | 0.00 | 0.00 | 44 | 1018.2 |
| 20260503230041 | 74 | 307 | 1.0 | 10.0 | 0.00 | 0.00 | 0.00 | 43 | 1018.4 |
| 20260503224540 | 74 | 315 | 2.0 | 7.0 | 0.00 | 0.00 | 0.00 | 43 | 1018.4 |
| 20260503223049 | 74 | 336 | 1.0 | 5.0 | 0.00 | 0.00 | 0.00 | 43 | 1018.4 |
| 20260503221545 | 74 | 342 | 2.0 | 8.0 | 0.00 | 0.00 | 0.00 | 41 | 1018.4 |
| 20260503220041 | 75 | 292 | 2.0 | 8.0 | 0.00 | 0.00 | 0.00 | 42 | 1018.4 |
| 20260503214546 | 75 | 5 | 1.0 | 4.0 | 0.00 | 0.00 | 0.00 | 40 | 1018.4 |
| 20260503213059 | 75 | 350 | 2.0 | 7.0 | 0.00 | 0.00 | 0.00 | 43 | 1018.5 |
| 20260503211541 | 75 | 334 | 1.0 | 9.0 | 0.00 | 0.00 | 0.00 | 43 | 1018.7 |
| 20260503210053 | 74 | 30 | 2.0 | 5.0 | 0.00 | 0.00 | 0.00 | 41 | 1018.9 |
| 20260503204549 | 74 | 257 | 5.0 | 10.0 | 0.00 | 0.00 | 0.00 | 44 | 1019.0 |
| 20260503203043 | 74 | 323 | 1.0 | 8.0 | 0.00 | 0.00 | 0.00 | 42 | 1019.5 |
| 20260503201542 | 74 | 336 | 3.0 | 8.0 | 0.00 | 0.00 | 0.00 | 43 | 1019.5 |
| 20260503200046 | 74 | 338 | 1.0 | 9.0 | 0.00 | 0.00 | 0.00 | 45 | 1019.7 |
| 20260503194543 | 74 | 360 | 3.0 | 12.0 | 0.00 | 0.00 | 0.00 | 42 | 1019.9 |
| 20260503193047 | 74 | 286 | 3.0 | 7.0 | 0.00 | 0.00 | 0.00 | 39 | 1020.4 |
| 20260503191543 | 74 | 332 | 3.0 | 15.0 | 0.00 | 0.00 | 0.00 | 43 | 1020.4 |
| 20260503190042 | 73 | 315 | 2.0 | 16.0 | 0.00 | 0.00 | 0.00 | 42 | 1020.6 |
| 20260503184552 | 73 | 270 | 3.0 | 11.0 | 0.00 | 0.00 | 0.00 | 43 | 1020.9 |
| 20260503183054 | 74 | 239 | 5.0 | 11.0 | 0.00 | 0.00 | 0.00 | 37 | 1021.1 |
| 20260503181544 | 73 | 311 | 3.0 | 15.0 | 0.00 | 0.00 | 0.00 | 41 | 1021.4 |
| 20260503180046 | 73 | 103 | 3.0 | 12.0 | 0.00 | 0.00 | 0.00 | 41 | 1021.5 |
| 20260503174541 | 72 | 292 | 3.0 | 11.0 | 0.00 | 0.00 | 0.00 | 38 | 1021.3 |
| 20260503173107 | 72 | 5 | 2.0 | 11.0 | 0.00 | 0.00 | 0.00 | 45 | 1021.5 |
| 20260503171548 | 72 | 339 | 3.0 | 8.0 | 0.00 | 0.00 | 0.00 | 40 | 1021.6 |
| 20260503081539 | 47 | 0 | 0.0 | 1.0 | 0.00 | 0.13 | 0.00 | 87 | 1019.7 |
| 20260503071543 | 48 | 0 | 1.0 | 2.0 | 0.00 | 0.19 | 0.00 | 86 | 1019.2 |